sat.trackr.live / text

‹ back to catalog

STARLINK-3968

NORAD 52639 · 2022-052AT

PAYLOAD ACTIVE UNKNOWN

§ Identity

Operator
Country
US
Launch date
2022-05-14
Launch site
AFETR
Launch vehicle
Mass (kg)
RCS (m²)

Purposes: comms

External: N2YO · Heavens-Above · Gunter

§ Orbital elements

Epoch: 2026-09-20T02:12:19.223424Z

Period
93.85 min
Inclination
53.1592°
Eccentricity
0.0001140
Mean motion
15.34391218 rev/d
Perigee alt
461.9 km
Apogee alt
463.5 km
Semi-major
6,840.9 km
B*
4.0503e-5
RAAN
93.9616°
Arg perigee
86.8131°
Mean anomaly
273.3002°
Rev number
24,145

§ Raw data

STARLINK-39681 52639U 22052AT  26263.09188916  .00000992  00000+0  40503-4 0  99922 52639  53.1592  93.9616 0001140  86.8131 273.3002 15.34391218241459

JSON: /api/v1/satellites/52639 · /tle

For live sub-satellite position, see the globe view (requires WebGL).

§ Visibility from observer

Set your observer location to see the next 7 days of passes ≥ 10°. The values pass through the URL so the page stays shareable.

No JS? Fill the form by hand. The geolocation button needs JavaScript.